Weather History for Crestview, FL

Change the Weather History Date:

Friday, November 8, 2013

  Actual Average Record
Temperature  
Mean Temperature 53 °F -  
Max Temperature 64 °F - - ()
Min Temperature 41 °F - - ()
Degree Days  
Heating Degree Days 12    
Growing Degree Days 3 (Base 50)    
Moisture  
Dew Point 35 °F    
Average Humidity 57    
Maximum Humidity 85    
Minimum Humidity 31    
Precipitation  
Precipitation 0.00 in - - ()
Sea Level Pressure  
Sea Level Pressure 30.23 in    
Wind  
Wind Speed 9 mph (NNE)    
Max Wind Speed 13 mph    
Max Gust Speed 20 mph    
Visibility 10 miles    
Events      
T = Trace of Precipitation, MM = Missing Value Source: NWS Daily Summary

Daily Weather History Graph

Daily Weather History Graph

Search for Another Location

Airport:

Trip Planner

Search our weather history database for the weather conditions in past years. The results will help you decide how hot, cold, wet, or windy it might be!

Date:

Astronomy

Nov. 08, 2013 Rise Set
Actual Time 6:06 AM CST 4:52 PM CST
Civil Twilight 5:41 AM CST 5:17 PM CST
Nautical Twilight 5:12 AM CST 5:46 PM CST
Astronomical Twilight 4:44 AM CST 6:15 PM CST
Moon 11:01 AM CST (11/8) 10:11 PM CST (11/8)
Length of Visible Light 11h 36m
Length of Day
10h 46m
Waxing Crescent, 33% of the Moon is Illuminated
Nov 8
Waxing Crescent
Nov 9
First Quarter
Nov 17
Full
Nov 25
Last Quarter
Dec 2
New

Hourly Weather History & Observations

Time (CST) Temp. Windchill Dew Point Humidity Pressure Visibility Wind Dir Wind Speed Gust Speed Precip Events Conditions
12:58 AM 47.1 °F - 35.6 °F 64% 30.22 in 10.0 mi North 10.4 mph - N/A   Clear
1:58 AM 45.7 °F 40.6 °F 34.0 °F 64% 30.22 in 10.0 mi North 10.4 mph - N/A   Clear
2:58 AM 45.3 °F 40.6 °F 32.7 °F 61% 30.21 in 10.0 mi North 9.2 mph - N/A   Clear
3:58 AM 43.9 °F 38.3 °F 32.5 °F 64% 30.22 in 10.0 mi North 10.4 mph - N/A   Clear
4:58 AM 43.2 °F 37.4 °F 32.4 °F 66% 30.24 in 10.0 mi North 10.4 mph - N/A   Clear
5:58 AM 42.4 °F 36.5 °F 32.2 °F 67% 30.26 in 10.0 mi North 10.4 mph - N/A   Clear
6:58 AM 43.3 °F 37.7 °F 32.0 °F 64% 30.28 in 10.0 mi North 10.4 mph - N/A   Clear
7:58 AM 47.8 °F - 31.3 °F 53% 30.30 in 10.0 mi NNE 10.4 mph 17.3 mph N/A   Clear
8:55 AM 52.7 °F - 30.7 °F 43% 30.29 in 10.0 mi NE 12.7 mph - N/A   Clear
9:55 AM 56.8 °F - 31.3 °F 38% 30.29 in 10.0 mi NE 10.4 mph 19.6 mph N/A   Partly Cloudy
10:55 AM 59.0 °F - 32.4 °F 37% 30.27 in 10.0 mi NNE 6.9 mph - N/A   Partly Cloudy
11:55 AM 61.3 °F - 32.9 °F 34% 30.22 in 10.0 mi NE 8.1 mph - N/A   Partly Cloudy
12:55 PM 63.5 °F - 32.9 °F 32% 30.21 in 10.0 mi NNE 10.4 mph 18.4 mph N/A   Partly Cloudy
1:55 PM 64.6 °F - 33.3 °F 31% 30.20 in 10.0 mi NNE 6.9 mph 17.3 mph N/A   Partly Cloudy
2:55 PM 64.8 °F - 33.6 °F 31% 30.18 in 10.0 mi North 10.4 mph 18.4 mph N/A   Partly Cloudy
3:55 PM 62.8 °F - 34.7 °F 35% 30.18 in 10.0 mi NNE 8.1 mph - N/A   Partly Cloudy
4:55 PM 58.1 °F - 37.4 °F 46% 30.19 in 10.0 mi NNE 4.6 mph - N/A   Scattered Clouds
5:55 PM 51.3 °F - 39.9 °F 65% 30.21 in 10.0 mi North 4.6 mph - N/A   Scattered Clouds
6:55 PM 47.8 °F - 39.9 °F 74% 30.22 in 10.0 mi Calm Calm - N/A   Partly Cloudy
7:55 PM 43.7 °F - 39.4 °F 85% 30.23 in 10.0 mi Calm Calm - N/A   Partly Cloudy
8:55 PM 45.7 °F 44.4 °F 38.7 °F 76% 30.23 in 10.0 mi NE 3.5 mph - N/A   Partly Cloudy
9:55 PM 43.5 °F 41.9 °F 37.6 °F 80% 30.24 in 10.0 mi NE 3.5 mph - N/A   Partly Cloudy
10:55 PM 43.7 °F 42.1 °F 37.4 °F 78% 30.23 in 10.0 mi NE 3.5 mph - N/A   Partly Cloudy
11:55 PM 41.7 °F 39.8 °F 36.7 °F 82% 30.21 in 10.0 mi ENE 3.5 mph - N/A   Partly Cloudy